NOAA 17 DEB, 48744

Orbit data source: Space-Track

NOAA 17 DEB, 48744 is space debris in SSO originally from a launch on Mon, 24 Jun 2002 UTC launched from the Air Force Western Test Range (AFWTR). Debris objects in space refer to the collection of defunct objects orbiting the Earth. Examples of debris include non-operational satellites, rocket bodies, and fragments generated from explosions, collisions, or faulty payload assembly.

Loading next visibility...
Identifier
48744, 2002-032CD
Orbit
SSO
Country
Flag of USUS
Related business
Manufacturer
Unknown
Mission
Spacecraft
Bus & Motor
Unknown
Mass
Unknown
Launch date (UTC)
2002-06-24 (23 years ago)
Launch vehicle
Unknown
Launch site
Air Force Western Test Range (AFWTR)
Object type
Payload
Rocket body
Debris
Shape & HBR
Unknown shape, 0.1 m
Radar Cross Section
Small (<0.1 m²)

Expand to show TLE details & history
Last TLE update: 20 hours ago

TLE from 20 hours ago
0 NOAA 17 DEB
1 48744U 02032CD  25348.76956177  .00005269  00000-0  14621-2 0  9992
2 48744  98.9042 354.4786 0014325  70.9117 289.3623 14.46906789246940
Epoch: 2025-12-14T18:28Z
TLE epoch observation values (Epoch: 2025-12-14T18:28:10.136Z)
Latitude
-0.00011°
Longitude
-6.24134°
Altitude
735.348 km
Speed
7.489 km/s
True Right ascension
23h 37m 54s
True Declination
0° 00' 00"
Sunlit
Object was in daylight at epoch
Visualization orbit readout
Latitude
Unknown
Longitude
Unknown
Altitude
Unknown
Speed
Unknown
Apparent Right ascension
Unknown
Apparent Declination
Unknown
Sunlit
N/A
Visualization observer readout
Local Sidereal Time
13:18:18
Azimuth
Unknown
Elevation
Unknown
Doppler factor
Unknown
Orbital elements
Apogee altitude
743.088 km
Perigee altitude
722.715 km
Semi-major axis
7,111.039 km
Eccentricity
0.00143
Inclination
98.9042°
RAAN
354.4786°
Arg. of periapsis
70.9117°
True anomaly
289.20734°
Mean anomaly
289.3623°
Eccentric anomaly
289.28483°
Mean motion
3.61946 °/min
Orbital period
99.46 mins
BSTAR
0.0014621
Loading maneuver chart data...
Computing Atmospheric mass density...
Loading historical data...
Loading historical data...
Loading historical data...
Loading historical data...
Loading historical data...
Loading historical data...
Loading historical data...

Documentation

Showing up to 5 results
|